Nashville, TN

1:39 AM CDT on July 21, 2019 (GMT -0500)
Nashville International

Weather History for KBNA - May, 2019

Change the Weather History Date:

Friday, May 31, 2019

  Actual Average Record
Temperature  
Mean Temperature 76 °F 72 °F  
Max Temperature 87 °F 82 °F 96 °F (1937)
Min Temperature 66 °F 61 °F 40 °F (1984)
Degree Days  
Heating Degree Days 0    
Month to date heating degree days 27  
Since 1 July heating degree days 3220  
Cooling Degree Days 12    
Month to date cooling degree days 277  
Year to date cooling degree days 336  
Growing Degree Days 26 (Base 50)    
Moisture  
Dew Point 57 °F    
Average Humidity 55    
Maximum Humidity 84    
Minimum Humidity 32    
Precipitation  
Precipitation 0.00 in 0.17 in 1.74 in (1893)
Month to date precipitation 1.59 5.50  
Year to date precipitation 29.47 21.30  
Sea Level Pressure  
Sea Level Pressure 29.91 in    
Wind  
Wind Speed 4 mph ()    
Max Wind Speed 14 mph    
Max Gust Speed 19 mph    
Visibility 10.0 miles    
Events      
T = Trace of Precipitation, MM = Missing Value Source: Averaged Metar Reports

Daily Weather History Graph

Daily Weather History Graph

Search for Another Location

Airport or City:

Astronomy

May. 31, 2019 Rise Set
Actual Time 5:31 AM CDT 7:57 PM CDT
Civil Twilight 5:01 AM CDT 8:27 PM CDT
Nautical Twilight 4:25 AM CDT 9:04 PM CDT
Astronomical Twilight 3:44 AM CDT 9:44 PM CDT
Moon 3:57 AM CDT (5/31) 5:13 PM CDT (5/31)
Length of Visible Light 15h 25m
Length of Day
14h 26m
Waning Crescent, 8% of the Moon is Illuminated
May 31
Waning Crescent
Jun 3
New
Jun 10
First Quarter
Jun 17
Full
Jun 25
Last Quarter

Hourly Weather History & Observations

Time (CDT) Temp. Heat Index Dew Point Humidity Pressure Visibility Wind Dir Wind Speed Gust Speed Precip Events Conditions
12:53 AM 70.0 °F - 64.9 °F 84% 29.89 in 10.0 mi Calm Calm - N/A   Scattered Clouds
1:53 AM 68.0 °F - 63.0 °F 84% 29.88 in 10.0 mi Calm Calm - N/A   Clear
2:53 AM 69.1 °F - 63.0 °F 81% 29.89 in 10.0 mi West 3.5 mph - N/A   Clear
3:53 AM 68.0 °F - 62.1 °F 81% 29.90 in 10.0 mi Calm Calm - N/A   Clear
4:53 AM 66.9 °F - 61.0 °F 81% 29.91 in 10.0 mi West 5.8 mph - N/A   Partly Cloudy
5:53 AM 66.9 °F - 60.1 °F 79% 29.93 in 10.0 mi West 6.9 mph - N/A   Partly Cloudy
6:53 AM 69.1 °F - 61.0 °F 75% 29.94 in 10.0 mi West 5.8 mph - N/A   Partly Cloudy
7:53 AM 73.0 °F - 61.0 °F 66% 29.94 in 10.0 mi West 4.6 mph - N/A   Partly Cloudy
8:53 AM 77.0 °F - 57.9 °F 52% 29.95 in 10.0 mi Calm Calm - N/A   Partly Cloudy
9:53 AM 79.0 °F - 53.1 °F 40% 29.95 in 10.0 mi WNW 5.8 mph - N/A   Partly Cloudy
10:53 AM 81.0 °F - 52.0 °F 36% 29.96 in 10.0 mi West 9.2 mph - N/A   Scattered Clouds
11:53 AM 82.0 °F - 52.0 °F 35% 29.95 in 10.0 mi WNW 12.7 mph 16.1 mph N/A   Scattered Clouds
12:53 PM 82.9 °F - 52.0 °F 34% 29.94 in 10.0 mi West 5.8 mph - N/A   Scattered Clouds
1:53 PM 82.0 °F - 51.1 °F 34% 29.92 in 10.0 mi WSW 8.1 mph - N/A   Mostly Cloudy
2:53 PM 82.9 °F 81.8 °F 53.1 °F 36% 29.91 in 10.0 mi Variable 6.9 mph - N/A   Mostly Cloudy
3:53 PM 86.0 °F 84.2 °F 54.0 °F 33% 29.89 in 10.0 mi West 9.2 mph - N/A   Mostly Cloudy
4:53 PM 84.9 °F 83.3 °F 54.0 °F 34% 29.89 in 10.0 mi WNW 9.2 mph - N/A   Mostly Cloudy
5:53 PM 82.9 °F 82.0 °F 55.0 °F 38% 29.88 in 10.0 mi WNW 8.1 mph - N/A   Mostly Cloudy
6:53 PM 82.0 °F 81.3 °F 54.0 °F 38% 29.88 in 10.0 mi Variable 3.5 mph - N/A   Scattered Clouds
7:53 PM 79.0 °F - 55.0 °F 44% 29.90 in 10.0 mi WNW 5.8 mph - N/A   Scattered Clouds
8:53 PM 77.0 °F - 55.9 °F 48% 29.91 in 10.0 mi Calm Calm - N/A   Scattered Clouds
9:53 PM 75.0 °F - 57.9 °F 55% 29.91 in 10.0 mi North 6.9 mph - N/A   Partly Cloudy
10:53 PM 72.0 °F - 59.0 °F 64% 29.91 in 10.0 mi NNE 5.8 mph - N/A   Partly Cloudy
11:53 PM 71.1 °F - 59.0 °F 66% 29.91 in 10.0 mi Calm Calm - N/A   Clear